www.pogodaiklimat.ru
ПОГОДА на Острове Вашингтон
Время
и дата
05:55 06.02
06:15 06.02
06:35 06.02
06:55 06.02
07:15 06.02
07:35 06.02
07:55 06.02
08:15 06.02
08:35 06.02
08:55 06.02
09:15 06.02
09:35 06.02
09:55 06.02
10:15 06.02
10:35 06.02
10:55 06.02
11:15 06.02
11:35 06.02
11:55 06.02
12:15 06.02
12:35 06.02
12:55 06.02
13:15 06.02
13:35 06.02
13:55 06.02
14:15 06.02
14:35 06.02
14:55 06.02
15:15 06.02
15:35 06.02
15:55 06.02
16:15 06.02
16:35 06.02
16:55 06.02
17:15 06.02
17:35 06.02
17:55 06.02
18:15 06.02
18:35 06.02
18:55 06.02
19:15 06.02
19:35 06.02
19:55 06.02
20:15 06.02
20:35 06.02
20:55 06.02
21:15 06.02
21:35 06.02
Ветер
(напр.,м/с)
Видим. Явления Облачность Т
(С)
Тd
(С)
f
(%)
Тe
(С)
Тes
(С)
Комфортность P
(гПа)
Po
(гПа)
Тmin
(С)
Tmax
(С)
R
(мм)
R24
(мм)
S
(см)
штиль 0 16 км 10/10 540 м -7.5 -10.0 82 -8 -8 1001.3 -7.5 -6.6
штиль 0 16 км 10/10 540 м -7.6 -9.7 85 -8 -8 1001.7
штиль 0 16 км 10/10 540 м -7.5 -9.6 85 -8 -8 1001.7
штиль 0 16 км 10/10 540 м -7.4 -9.3 86 -8 -8 1001.7
штиль 0 16 км 10/10 540 м -7.2 -9.5 84 -8 -8 1001.7
штиль 0 16 км 10/10 540 м -7.4 -9.2 87 -8 -8 1002.0
штиль 0 16 км 10/10 540 м -7.1 -9.2 85 -8 -8 1002.0
штиль 0 16 км 10/10 480 м -6.6 -8.9 84 -7 -7 1001.7
штиль 0 16 км 10/10 480 м -6.0 -8.1 85 -7 -7 1001.3
Ю 2 16 км 10/10 480 м -5.6 -8.0 83 -10 -10 1001.3
Ю 2 16 км 10/10 480 м -5.2 -7.2 86 -9 -9 1001.3
Ю 2 16 км 10/10 480 м -4.6 -6.7 85 -9 -9 1001.0
Ю 2 16 км 10/10 480 м -4.2 -6.2 86 -8 -8 1000.7
Ю 2 16 км 10/10 480 м -3.6 -5.8 85 -8 -8 1000.7
Ю 4 16 км 10/10 480 м -3.2 -5.3 85 -9 -9 1000.7
Ю 3 16 км 10/10 480 м -2.8 -5.0 85 -8 -8 1000.7
Ю 4 16 км 10/10 480 м -2.7 -5.0 84 -9 -9 1000.4
Ю 4 16 км 10/10 480 м -2.2 -4.6 84 -8 -8 1000.4
Ю 4 16 км 10/10 480 м -2.2 -4.3 85 -8 -8 999.7 -7.8 -2.2
Ю 4 16 км 10/10 480 м -2.0 -4.0 86 -8 -8 999.4
Ю 3 16 км 10/10 480 м -2.0 -3.8 87 -7 -7 999.0
Ю 4 16 км 10/10 480 м -2.0 -3.7 88 -8 -8 998.7
Ю 6 16 км 10/10 420 м -1.6 -3.5 87 -9 -9 998.0
Ю 6
{9}
16 км 10/10 420 м -2.0 -3.6 89 -9 -9 997.4
Ю 4
{8}
16 км 10/10 420 м -1.8 -3.0 91 -8 -8 997.0
Ю 5 16 км 10/10 420 м -2.0 -2.8 94 -9 -9 996.7
Ю 3 16 км 10/10 420 м -2.0 -2.8 94 -7 -7 996.4
Ю 4 16 км 10/10 360 м -1.7 -2.1 97 -8 -8 996.4
Ю 5
{8}
16 км 10/10 360 м -1.5 -2.0 96 -8 -8 996.4
Ю 4
{8}
16 км 10/10 360 м -1.5 -1.5 100 -8 -8 995.7
Ю 3 16 км 10/10 360 м -1.3 -1.5 99 -6 -6 995.7
Ю 3 16 км 10/10 360 м -1.2 -1.9 95 -6 -6 995.4
Ю 2 16 км 10/10 420 м -1.3 -2.1 94 -5 -5 994.7
Ю 3 16 км 10/10 420 м -1.3 -2.6 91 -6 -6 994.1
Ю 3 16 км 5/5 480 м -1.6 -3.0 90 -7 -7 993.7
Ю 3 16 км 5/5 480 м -1.5 -3.3 88 -7 -7 993.7
ЮВ 3 16 км ясно -1.1 -3.9 81 -6 -6 993.1 -2.2 -1.1
ЮВ 4
{7}
16 км ясно -1.1 -4.0 81 -7 -7 992.4
ЮВ 4
{7}
16 км ясно -1.0 -3.8 81 -7 -7 991.7
ЮВ 5 16 км 5/0 3600 m
[Ac]
-1.2 -2.8 89 -8 -8 991.4
ЮВ 3 16 км 5/0 3600 m
[Ac]
-1.1 -2.8 88 -6 -6 990.7
ЮВ 3 16 км 5/0 3600 m
[Ac]
-0.5 -3.5 80 -5 -5 990.4
Ю 4
{7}
16 км 5/0 3600 m
[Ac]
-0.1 -4.1 74 -5 -5 990.7
Ю 4 16 км 5/0 3600 m
[Ac]
-0.2 -3.4 79 -6 -6 990.7
Ю 4 16 км 8/0 3600 m
[Ac]
-0.2 -3.1 81 -6 -6 990.4
Ю 5
{8}
16 км 8/0 3600 m
[Ac]
0.0 -2.6 83 -6 -6 989.4
Ю 5
{8}
16 км 8/0 3600 m
[Ac]
0.0 -2.4 84 -6 -6 988.8
ЮВ 7
{11}
16 км 8/0 3600 m
[Ac]
0.0 -2.3 84 -7 -7 987.8
Местоположение метеостанции Washington Island Airport: широта 45.3883 долгота -86.9240 высота над уровнем моря 182 м.
В архиве по умолчанию представлена погода на Острове Вашингтон за последние 1-2 суток. Обновление информации о фактической погоде в базе происходит ежечасно! Архивные данные за месяц целиком и за предыдущие месяцы Вы можете получить, выбрав интересующий диапазон дат из раскрывающегося списка и нажав кнопку "Ввод!".
Внимание! Архив погоды МЕТАР в базе сайта по станциям, не включенным в климатический монитор, хранится не более 60 дней. Нет смысла пытаться выбрать более раннюю дату.
*Определитесь, кто Вы:
Внимание! Время в таблицах - местное (без учета летнего времени). Для получения всемирного времени необходимо вычесть поправку, которая равна -6 ч.
Смотрите также архив погоды в соседних городах и на ближайших метеорологических станциях:
Партнеры нашего сайта:      
Пояснения к столбцам:
  • Ветер - указаны скорость ветра в м/с - средняя за 10 мин, порывы в срок и между сроками (в фигурных скобках) и направление, откуда дует ветер: С - северный,
  • СВ - северо-восточный, В - восточный, ЮВ - юго-восточный, Ю - южный, ЮЗ - юго-западный, З - западный, СЗ - северо-западный.
  • Видимость - горизонтальная дальность видимости в метрах или километрах. При видимости от 1 до 10 км при отсутствии осадков обычно наблюдается дымка, при ухудшении видимости до 1 км и менее - туман. В сухую погоду видимость может ухудшаться дымом, пылью или мглою.
  • Явления - указаны атмосферные явления, наблюдавшиеся в срок или в последний час перед сроком; фигурными скобками обозначены явления, наблюдавшиеся между сроками (за 1-3 часа до срока); квадратными скобками обозначены град или гололедные отложения с указанием их диаметра в мм.
  • Облачность - указаны через наклонную черту общая и нижняя облачность в баллах и высота нижней границы облаков в метрах; квадратными скобками обозначены формы облаков: Ci - перистые, Cs - перисто-слоистые, Cc - перисто-кучевые, Ac - высококучевые, As - высокослоистые, Sc - слоисто-кучевые, Ns - слоисто-дождевые, Cu - кучевые, Cb - кучево-дождевые. Подробнее классификацию облаков см. в Атласе облаков (PDF).
  • T - Температура воздуха - температура, измеренная на высоте 2 м над землей.
  • Td - Температура точки росы - температура, при понижении до которой содержащийся в воздухе водяной пар достигнет насыщения.
  • f - Относительная влажность воздуха - влажноcть воздуха, измеренная на высоте 2 м над землей.
  • Te - Эффективная температура - температура, которую ощущает одетый по сезону человек в тени. Характеристика душности погоды. При расчете учитывается влияние влажности воздуха и скорости ветра на теплоощущения человека.
  • Tes - Эффективная температура на солнце - температура, которую ощущает человек, с поправкой на солнечный нагрев. Характеристика знойности погоды. Зависит от высоты солнца над горизонтом, облачности и скорости ветра. Ночью, в пасмурную погоду, а также при ветре 12 м/с и более поправка равна нулю.
  • P - Атмосферное давление - приведенное к уровню моря атмосферное давление.
  • Po - Атмосферное давление - измеренное на уровне метеостанции атмосферное давление.
  • Tmin - Минимальная температура - минимум температуры воздуха на высоте 2 м над землей.
  • Tmax - Максимальная температура - максимум температуры воздуха на высоте 2 м над землей.
  • R - Количество осадков - Количество выпавших осадков за период времени, мм. При наведении курсора мыши на число - период времени, за который выпало указанное количество осадков.
  • R24 - Количество осадков - Количество выпавших осадков за 24 часа, мм.
  • S - Снежный покров - Высота снежного покрова, см. При наведении курсора мыши на число - состояние снежного покрова и степень покрытия местности в баллах.